Weather History for Howell, MI

Change the Weather History Date:

Thursday, April 12, 2012

  Actual Average Record
Temperature  
Mean Temperature 42 °F -  
Max Temperature 55 °F 57 °F 73 °F (2002)
Min Temperature 29 °F 37 °F 23 °F (2009)
Degree Days  
Heating Degree Days 23    
Moisture  
Dew Point 29 °F    
Average Humidity 61    
Maximum Humidity 95    
Minimum Humidity 31    
Precipitation  
Precipitation 0.00 in - - ()
Sea Level Pressure  
Sea Level Pressure 30.19 in    
Wind  
Wind Speed 2 mph (NW)    
Max Wind Speed 10 mph    
Max Gust Speed 16 mph    
Visibility 9 miles    
Events      
Averages and records for this station are not official NWS values.
T = Trace of Precipitation, MM = Missing Value Source: NWS Daily Summary

Daily Weather History Graph

Daily Weather History Graph

Search for Another Location

Airport:

Trip Planner

Search our weather history database for the weather conditions in past years. The results will help you decide how hot, cold, wet, or windy it might be!

Date:

Astronomy

Apr. 12, 2012 Rise Set
Actual Time 6:58 AM EDT 8:15 PM EDT
Civil Twilight 6:29 AM EDT 8:44 PM EDT
Nautical Twilight 5:54 AM EDT 9:19 PM EDT
Astronomical Twilight 5:17 AM EDT 9:56 PM EDT
Moon 2:06 AM EDT (4/12) 11:48 AM EDT (4/12)
Length of Visible Light 14h 14m
Length of Day
13h 16m
Waning Gibbous, 59% of the Moon is Illuminated
Apr 12
Waning Gibbous
Apr 13
Last Quarter
Apr 21
New
Apr 29
First Quarter
May 5
Full

Hourly Weather History & Observations

Time (EDT) Temp. Windchill Dew Point Humidity Pressure Visibility Wind Dir Wind Speed Gust Speed Precip Events Conditions
12:14 AM 37.2 °F - 28.2 °F 70% 30.19 in 10.0 mi Calm Calm - N/A   Clear
12:34 AM 36.9 °F - 28.0 °F 70% 30.19 in 10.0 mi Calm Calm - N/A   Clear
12:54 AM 36.0 °F - 26.6 °F 69% 30.19 in 10.0 mi Calm Calm - N/A   Clear
1:14 AM 34.7 °F 31.8 °F 27.0 °F 73% 30.19 in 10.0 mi ESE 3.5 mph - N/A   Clear
1:55 AM 32.9 °F 28.5 °F 27.5 °F 81% 30.19 in 10.0 mi East 4.6 mph - N/A   Clear
2:14 AM 33.8 °F - 28.6 °F 81% 30.19 in 10.0 mi Calm Calm - N/A   Clear
2:35 AM 34.2 °F - 29.1 °F 82% 30.19 in 10.0 mi Calm Calm - N/A   Clear
2:54 AM 32.9 °F - 28.6 °F 84% 30.19 in 10.0 mi Calm Calm - N/A   Clear
3:14 AM 32.9 °F 29.8 °F 29.7 °F 88% 30.19 in 10.0 mi East 3.5 mph - N/A   Clear
3:34 AM 32.9 °F 29.8 °F 29.8 °F 88% 30.18 in 10.0 mi SE 3.5 mph - N/A   Clear
3:55 AM 34.2 °F 31.2 °F 30.7 °F 87% 30.18 in 10.0 mi SSE 3.5 mph - N/A   Clear
4:14 AM 35.6 °F - 32.0 °F 87% 30.19 in 10.0 mi Calm Calm - N/A   Clear
4:34 AM 34.0 °F - 30.9 °F 89% 30.19 in 10.0 mi Calm Calm - N/A   Clear
4:55 AM 33.4 °F 30.4 °F 31.1 °F 91% 30.20 in 7.0 mi SW 3.5 mph - N/A   Clear
5:14 AM 32.7 °F - 30.4 °F 91% 30.20 in 7.0 mi Calm Calm - N/A   Clear
5:34 AM 32.2 °F - 30.2 °F 92% 30.20 in 7.0 mi Calm Calm - N/A   Clear
5:55 AM 31.3 °F - 28.8 °F 90% 30.20 in 10.0 mi Calm Calm - N/A   Clear
6:14 AM 32.0 °F - 29.3 °F 90% 30.20 in 7.0 mi Calm Calm - N/A   Clear
6:34 AM 29.3 °F - 27.3 °F 92% 30.20 in 5.0 mi Calm Calm - N/A   Clear
6:54 AM 29.7 °F - 28.0 °F 94% 30.20 in 5.0 mi Calm Calm - N/A   Clear
7:14 AM 29.3 °F - 27.9 °F 94% 30.21 in 5.0 mi Calm Calm - N/A   Clear
7:34 AM 29.3 °F - 28.0 °F 95% 30.21 in 4.0 mi Calm Calm - N/A   Clear
7:54 AM 30.7 °F - 29.5 °F 95% 30.22 in 4.0 mi Calm Calm - N/A   Clear
8:14 AM 33.3 °F 30.2 °F 32.0 °F 95% 30.23 in 4.0 mi North 3.5 mph - N/A   Clear
8:35 AM 35.2 °F - 32.9 °F 91% 30.23 in 5.0 mi Calm Calm - N/A   Clear
8:54 AM 36.9 °F - 33.6 °F 88% 30.24 in 5.0 mi Calm Calm - N/A   Clear
9:14 AM 39.0 °F - 34.0 °F 82% 30.24 in 7.0 mi Calm Calm - N/A   Clear
9:35 AM 40.3 °F - 33.3 °F 76% 30.24 in 10.0 mi Calm Calm - N/A   Clear
9:54 AM 41.9 °F - 32.7 °F 70% 30.24 in 10.0 mi Calm Calm - N/A   Clear
10:14 AM 43.5 °F - 32.7 °F 66% 30.25 in 10.0 mi Calm Calm - N/A   Clear
10:35 AM 45.0 °F 41.8 °F 32.2 °F 61% 30.25 in 10.0 mi West 5.8 mph - N/A   Clear
10:54 AM 46.6 °F - 32.0 °F 57% 30.25 in 10.0 mi NW 6.9 mph - N/A   Clear
11:14 AM 47.1 °F - 31.8 °F 55% 30.24 in 10.0 mi WNW 6.9 mph - N/A   Clear
11:34 AM 47.8 °F - 31.8 °F 54% 30.24 in 10.0 mi WNW 4.6 mph - N/A   Clear
11:54 AM 49.5 °F - 32.0 °F 51% 30.23 in 10.0 mi West 5.8 mph - N/A   Clear
12:14 PM 50.2 °F - 32.4 °F 50% 30.22 in 10.0 mi WNW 10.4 mph - N/A   Scattered Clouds
12:34 PM 50.0 °F - 30.0 °F 46% 30.21 in 10.0 mi NW 8.1 mph - N/A   Scattered Clouds
12:54 PM 52.2 °F - 30.2 °F 43% 30.21 in 10.0 mi WNW 10.4 mph - N/A   Scattered Clouds
1:15 PM 52.0 °F - 27.0 °F 38% 30.20 in 10.0 mi WNW 8.1 mph 16.1 mph N/A   Scattered Clouds
1:34 PM 52.2 °F - 26.8 °F 37% 30.20 in 10.0 mi WNW 6.9 mph - N/A   Clear
1:54 PM 53.4 °F - 28.4 °F 38% 30.20 in 10.0 mi WNW 4.6 mph - N/A   Scattered Clouds
2:15 PM 52.9 °F - 26.4 °F 36% 30.19 in 10.0 mi Calm Calm - N/A   Scattered Clouds
2:34 PM 52.9 °F - 26.4 °F 36% 30.19 in 10.0 mi NW 8.1 mph - N/A   Scattered Clouds
2:54 PM 54.7 °F - 27.1 °F 35% 30.18 in 10.0 mi NW 8.1 mph - N/A   Clear
3:14 PM 54.3 °F - 26.8 °F 35% 30.17 in 10.0 mi WNW 8.1 mph - N/A   Scattered Clouds
3:54 PM 53.8 °F - 24.1 °F 32% 30.16 in 10.0 mi Calm Calm - N/A   Scattered Clouds
4:14 PM 55.6 °F - 27.1 °F 34% 30.16 in 10.0 mi NNW 9.2 mph - N/A   Scattered Clouds
4:34 PM 54.7 °F - 26.2 °F 33% 30.15 in 10.0 mi North 4.6 mph - N/A   Clear
4:55 PM 54.9 °F - 25.5 °F 32% 30.15 in 10.0 mi NNW 6.9 mph - N/A   Clear
5:15 PM 54.0 °F - 24.1 °F 31% 30.14 in 10.0 mi North 3.5 mph - N/A   Scattered Clouds
5:34 PM 55.0 °F - 25.7 °F 32% 30.14 in 10.0 mi NW 4.6 mph - N/A   Mostly Cloudy
5:55 PM 53.1 °F - 26.2 °F 35% 30.15 in 10.0 mi NNW 4.6 mph - N/A   Mostly Cloudy
6:14 PM 52.9 °F - 26.4 °F 36% 30.15 in 10.0 mi NNW 3.5 mph - N/A   Mostly Cloudy
6:34 PM 54.0 °F - 25.7 °F 34% 30.15 in 10.0 mi NW 8.1 mph - N/A   Scattered Clouds
6:55 PM 53.4 °F - 25.5 °F 34% 30.15 in 10.0 mi NNW 5.8 mph - N/A   Clear
7:14 PM 52.7 °F - 27.9 °F 38% 30.15 in 10.0 mi Calm Calm - N/A   Clear
7:34 PM 50.9 °F - 28.0 °F 41% 30.15 in 10.0 mi NNW 5.8 mph - N/A   Scattered Clouds
7:54 PM 50.9 °F - 26.6 °F 39% 30.15 in 10.0 mi Calm Calm - N/A   Mostly Cloudy
8:14 PM 51.3 °F - 25.5 °F 37% 30.15 in 10.0 mi Calm Calm - N/A   Mostly Cloudy
8:34 PM 50.4 °F - 26.2 °F 39% 30.16 in 10.0 mi Calm Calm - N/A   Scattered Clouds
8:54 PM 49.6 °F - 26.4 °F 41% 30.16 in 10.0 mi Calm Calm - N/A   Scattered Clouds
9:14 PM 48.6 °F - 26.4 °F 42% 30.17 in 10.0 mi Calm Calm - N/A   Scattered Clouds
9:35 PM 48.0 °F - 27.5 °F 45% 30.17 in 10.0 mi Calm Calm - N/A   Mostly Cloudy
9:54 PM 46.2 °F - 29.3 °F 52% 30.18 in 7.0 mi Calm Calm - N/A   Scattered Clouds
10:14 PM 45.9 °F - 29.1 °F 52% 30.18 in 10.0 mi Calm Calm - N/A   Mostly Cloudy
10:35 PM 45.0 °F - 29.8 °F 55% 30.17 in 10.0 mi Calm Calm - N/A   Scattered Clouds
10:54 PM 43.7 °F - 30.2 °F 59% 30.17 in 10.0 mi Calm Calm - N/A   Clear
11:14 PM 42.4 °F - 29.7 °F 61% 30.18 in 10.0 mi Calm Calm - N/A   Clear
11:34 PM 40.6 °F - 29.8 °F 65% 30.18 in 10.0 mi Calm Calm - N/A   Clear
11:54 PM 39.2 °F 35.9 °F 30.4 °F 71% 30.20 in 10.0 mi WSW 4.6 mph - N/A   Scattered Clouds